Flag for U.S.A. Weather past 2 weeks in Springfield, Illinois, U.S.A.

Now
78 °F

Clear.


Feels Like: 80 °F
Forecast: 72 / 93 °F
Wind: No wind

Location: Capital Airport

Current Time: Sep 4, 2015 at 10:56:06 PM

Latest Report: Sep 4, 2015 at 9:52 PM


Visibility: 10 mi

Pressure: 30.01 "Hg

Humidity: 74%

Dew point: 69 °F

Location of SpringfieldLocation

Historic Weather in Springfield — Graph

°F

Springfield temperature yesterday

Maximum temperature yesterday: 95 °F (at 3:52 PM)
Minimum temperature yesterday: 70 °F (at 5:52 AM)
Average temperature yesterday: 82 °F

Past Weeks' High & Low Weather Summary

 TemperatureHumidityPressure
High95 °F (Sep 3, 3:52 PM)97% (Aug 23, 7:52 AM)30.21 "Hg (Aug 23, 7:52 AM)
Low49 °F (Aug 25, 6:52 AM)37% (Aug 24, 4:52 PM)29.88 "Hg (Aug 23, 2:52 AM)
Average73 °F71%30.04 "Hg
* Reported Aug 20 8:52 PM — Sep 4 8:52 PM, Springfield, Weather by CustomWeather, © 2015

Note: Actual official high and low records may vary slightly from our data, if they occured in-between our weather recording intervals... More about our weather records

Advertising

Springfield weather history for previous 24 hours

 ConditionsComfort  
Time TempWeatherWind HumidityBarometerVisibility
8:52 PM
Fri, Sep 4
79 °FClear.No wind69%30.00 "Hg10 mi
7:52 PM81 °FSunny.5 mph67%29.97 "Hg10 mi
6:52 PM88 °FSunny.7 mph52%29.97 "Hg10 mi
5:52 PM91 °FSunny.8 mph45%29.96 "Hg10 mi
4:52 PM94 °FSunny.6 mph40%29.96 "Hg10 mi
3:52 PM95 °FPassing clouds.9 mph40%29.96 "Hg10 mi
2:52 PM95 °FPassing clouds.9 mph39%29.97 "Hg10 mi
1:52 PM95 °FPassing clouds.5 mph39%29.98 "Hg10 mi
12:52 PM93 °FScattered clouds.6 mph42%29.99 "Hg10 mi
11:52 AM91 °FSunny.7 mph49%30.01 "Hg10 mi
10:52 AM90 °FSunny.6 mph52%30.02 "Hg10 mi
9:52 AM87 °FSunny.5 mph59%30.01 "Hg10 mi
8:52 AM82 °FSunny.3 mph67%30.00 "Hg10 mi
7:52 AM77 °FSunny.No wind79%29.99 "Hg10 mi
6:52 AM70 °FClear.No wind87%29.98 "Hg10 mi
5:52 AM70 °FClear.No wind87%29.96 "Hg10 mi
4:52 AM70 °FPassing clouds.No wind87%29.96 "Hg10 mi
3:52 AM71 °FClear.No wind84%29.95 "Hg10 mi
2:52 AM71 °FClear.No wind84%29.94 "Hg10 mi
1:52 AM73 °FClear.3 mph81%29.94 "Hg10 mi
12:52 AM73 °FClear.No wind81%29.94 "Hg10 mi
11:52 PM
Thu, Sep 3
74 °FPassing clouds.3 mph79%29.93 "Hg10 mi
10:52 PM76 °FPassing clouds.3 mph77%29.93 "Hg10 mi
Weather by CustomWeather, © 2015

See weather overviewHow to use our weather pages